STARLINK-1413, 45689

Orbit data source: Space-Track

STARLINK-1413, 45689 is a payload satellite owned by SpaceX/Seattle (US) in LEO that was launched on Thu, 04 Jun 2020 UTC via an FALCON 9 launch vehicle from the Air Force Eastern Test Range (AFETR). Payload-class satellites include a variety of spacecraft equipped with specific instruments for various scientific and technological missions. These include communications satellites like Starlink; space stations such as the ISS; scientific satellites like the Hubble; Earth observation satellites from companies like Planet Labs, Umbra, and HawkEye 360; GPS; miniature CubeSats for education and research; and military/defense satellites.

Loading next visibility...
Identifier
45689, 2020-035AJ
Orbit
LEO
Country
Flag of USUS
Related business
Manufacturer
SpaceX/Seattle
Mission
Partially operational Commercial Communications
Bus & Motor
STARLINK, Unknown motor
Mass
260 kg wet, ~248 kg dry
Launch date (UTC)
2020-06-04 (6 years ago)
Launch vehicle
FALCON 9
Launch site
Air Force Eastern Test Range (AFETR)
Object type
Payload
Rocket body
Debris
Shape & HBR
Box + 1 Pan, 10.1 m
Radar Cross Section
13.562 m², Large (>1 m²)

Expand to show TLE details & history
Last TLE update: 17 hours ago

TLE from 17 hours ago
0 STARLINK-1413
1 45689U 20035AJ  26237.68475686  .00035481  00000-0  84198-3 0  9996
2 45689  53.1546 339.0434 0001441  78.1827 281.9340 15.41400646344848
Epoch: 2026-08-25T16:26Z
TLE epoch observation values (Epoch: 2026-08-25T16:26:02.992Z)
Latitude
-0.00005°
Longitude
118.58233°
Altitude
442.675 km
Speed
7.648 km/s
True Right ascension
22h 36m 10s
True Declination
0° 00' 00"
Sunlit
Object was in full shadow at epoch
Visualization orbit readout
Latitude
Unknown
Longitude
Unknown
Altitude
Unknown
Speed
Unknown
Apparent Right ascension
Unknown
Apparent Declination
Unknown
Sunlit
N/A
Visualization observer readout
Local Sidereal Time
01:13:25
Azimuth
Unknown
Elevation
Unknown
Doppler factor
Unknown
Orbital elements
Apogee altitude
443.216 km
Perigee altitude
441.25 km
Semi-major axis
6,820.37 km
Eccentricity
0.00014
Inclination
53.1546°
RAAN
339.0434°
Arg. of periapsis
78.1827°
True anomaly
281.91784°
Mean anomaly
281.934°
Eccentric anomaly
281.92592°
Mean motion
3.85329 °/min
Orbital period
93.43 mins
BSTAR
0.00084198
Loading maneuver chart data...
Computing Atmospheric mass density...

Documentation

Showing up to 5 results
|